Weather History for Provincetown, MA

Change the Weather History Date:

Tuesday, April 16, 2013

  Actual Average Record
Temperature  
Mean Temperature 47 °F -  
Max Temperature 55 °F 50 °F 77 °F (2002)
Min Temperature 39 °F 38 °F 28 °F (2011)
Degree Days  
Heating Degree Days 18    
Moisture  
Dew Point 41 °F    
Average Humidity 80    
Maximum Humidity 100    
Minimum Humidity 58    
Precipitation  
Precipitation 0.00 in - - ()
Sea Level Pressure  
Sea Level Pressure 30.33 in    
Wind  
Wind Speed 10 mph (South)    
Max Wind Speed 21 mph    
Max Gust Speed 31 mph    
Visibility 10 miles    
Events      
Averages and records for this station are not official NWS values.
T = Trace of Precipitation, MM = Missing Value Source: NWS Daily Summary

Daily Weather History Graph

Daily Weather History Graph

Search for Another Location

Airport:

Trip Planner

Search our weather history database for the weather conditions in past years. The results will help you decide how hot, cold, wet, or windy it might be!

Date:

Astronomy

Apr. 16, 2013 Rise Set
Actual Time 5:58 AM EDT 7:23 PM EDT
Civil Twilight 5:29 AM EDT 7:52 PM EDT
Nautical Twilight 4:54 AM EDT 8:27 PM EDT
Astronomical Twilight 4:17 AM EDT 9:05 PM EDT
Moon 10:11 AM EDT (4/16) 12:20 AM EDT (4/16)
Length of Visible Light 14h 23m
Length of Day
13h 25m
Waxing Crescent, 33% of the Moon is Illuminated
Apr 16
Waxing Crescent
Apr 18
First Quarter
Apr 25
Full
May 2
Last Quarter
May 9
New

Hourly Weather History & Observations

Time (EDT) Temp. Windchill Dew Point Humidity Pressure Visibility Wind Dir Wind Speed Gust Speed Precip Events Conditions
12:15 AM 42.8 °F 39.3 °F 39.2 °F 87% 30.42 in 10.0 mi South 5.8 mph - N/A   Clear
12:35 AM 42.8 °F 38.6 °F 39.2 °F 87% 30.43 in 10.0 mi South 6.9 mph - N/A   Clear
12:55 AM 41.0 °F 38.0 °F 39.2 °F 93% 30.43 in 10.0 mi South 4.6 mph - N/A   Clear
1:15 AM 41.0 °F 37.1 °F 39.2 °F 93% 30.43 in 10.0 mi SSW 5.8 mph - N/A   Clear
1:35 AM 41.0 °F 38.0 °F 39.2 °F 93% 30.43 in 10.0 mi South 4.6 mph - N/A   Clear
1:55 AM 41.0 °F 38.0 °F 39.2 °F 93% 30.43 in 10.0 mi South 4.6 mph - N/A   Clear
2:15 AM 39.2 °F 37.0 °F 39.2 °F 100% 30.44 in 10.0 mi South 3.5 mph - N/A   Clear
2:35 AM 39.2 °F 35.9 °F 37.4 °F 93% 30.43 in 10.0 mi SSE 4.6 mph - N/A   Clear
2:55 AM 39.2 °F 37.0 °F 37.4 °F 93% 30.43 in 10.0 mi South 3.5 mph - N/A   Clear
3:15 AM 39.2 °F 37.0 °F 37.4 °F 93% 30.43 in 10.0 mi SSE 3.5 mph - N/A   Clear
3:35 AM 39.2 °F 35.9 °F 37.4 °F 93% 30.43 in 10.0 mi SSE 4.6 mph - N/A   Clear
3:55 AM 39.2 °F 35.9 °F 37.4 °F 93% 30.43 in 10.0 mi South 4.6 mph - N/A   Clear
4:15 AM 39.2 °F 35.9 °F 39.2 °F 100% 30.44 in 10.0 mi South 4.6 mph - N/A   Clear
4:35 AM 39.2 °F 35.9 °F 37.4 °F 93% 30.44 in 10.0 mi South 4.6 mph - N/A   Clear
4:55 AM 39.2 °F 35.9 °F 39.2 °F 100% 30.44 in 10.0 mi South 4.6 mph - N/A   Clear
5:15 AM 39.2 °F 35.0 °F 39.2 °F 100% 30.43 in 10.0 mi South 5.8 mph - N/A   Clear
5:35 AM 41.0 °F 38.0 °F 39.2 °F 93% 30.44 in 10.0 mi South 4.6 mph - N/A   Clear
5:55 AM 39.2 °F 35.0 °F 39.2 °F 100% 30.43 in 10.0 mi South 5.8 mph - N/A   Clear
6:15 AM 41.0 °F 37.1 °F 41.0 °F 100% 30.43 in 10.0 mi South 5.8 mph - N/A   Clear
6:35 AM 41.0 °F 36.4 °F 39.2 °F 93% 30.43 in 10.0 mi SSE 6.9 mph - N/A   Clear
6:55 AM 42.8 °F 38.0 °F 41.0 °F 93% 30.44 in 10.0 mi South 8.1 mph - N/A   Clear
7:15 AM 42.8 °F 37.5 °F 41.0 °F 93% 30.44 in 10.0 mi South 9.2 mph - N/A   Clear
7:35 AM 42.8 °F 37.5 °F 41.0 °F 93% 30.44 in 10.0 mi SSE 9.2 mph - N/A   Clear
7:55 AM 44.6 °F 38.8 °F 41.0 °F 87% 30.43 in 10.0 mi SSE 11.5 mph - N/A   Partly Cloudy
8:15 AM 44.6 °F 38.8 °F 41.0 °F 87% 30.43 in 10.0 mi South 11.5 mph - N/A   Partly Cloudy
8:35 AM 46.4 °F 41.5 °F 41.0 °F 81% 30.43 in 10.0 mi South 10.4 mph 17.3 mph N/A   Clear
8:55 AM 46.4 °F 41.1 °F 41.0 °F 81% 30.42 in 10.0 mi South 11.5 mph 17.3 mph N/A   Clear
9:15 AM 48.2 °F - 39.2 °F 71% 30.42 in 10.0 mi SSE 11.5 mph - N/A   Clear
9:35 AM 48.2 °F - 39.2 °F 71% 30.42 in 10.0 mi SSE 13.8 mph 18.4 mph N/A   Clear
9:55 AM 50.0 °F - 39.2 °F 66% 30.42 in 10.0 mi South 11.5 mph 19.6 mph N/A   Clear
10:15 AM 50.0 °F - 39.2 °F 66% 30.41 in 10.0 mi South 15.0 mph - N/A   Clear
10:35 AM 50.0 °F - 39.2 °F 66% 30.42 in 10.0 mi South 12.7 mph 21.9 mph N/A   Clear
10:55 AM 51.8 °F - 39.2 °F 62% 30.41 in 10.0 mi South 13.8 mph 25.3 mph N/A   Clear
11:15 AM 51.8 °F - 39.2 °F 62% 30.40 in 10.0 mi South 17.3 mph 23.0 mph N/A   Clear
11:35 AM 53.6 °F - 39.2 °F 58% 30.39 in 10.0 mi South 15.0 mph 23.0 mph N/A   Clear
11:55 AM 53.6 °F - 39.2 °F 58% 30.38 in 10.0 mi South 15.0 mph 21.9 mph N/A   Clear
12:15 PM 53.6 °F - 39.2 °F 58% 30.36 in 10.0 mi South 18.4 mph 25.3 mph N/A   Clear
12:35 PM 53.6 °F - 42.8 °F 67% 30.35 in 10.0 mi South 17.3 mph 28.8 mph N/A   Clear
12:55 PM 55.4 °F - 42.8 °F 63% 30.34 in 10.0 mi South 18.4 mph 25.3 mph N/A   Clear
1:15 PM 53.6 °F - 42.8 °F 67% 30.33 in 10.0 mi South 20.7 mph 26.5 mph N/A   Clear
1:35 PM 53.6 °F - 42.8 °F 67% 30.32 in 10.0 mi South 18.4 mph 27.6 mph N/A   Clear
1:55 PM 55.4 °F - 42.8 °F 63% 30.31 in 10.0 mi South 17.3 mph 24.2 mph N/A   Clear
2:15 PM 55.4 °F - 42.8 °F 63% 30.30 in 10.0 mi South 20.7 mph 27.6 mph N/A   Clear
2:35 PM 55.4 °F - 42.8 °F 63% 30.31 in 10.0 mi South 17.3 mph 26.5 mph N/A   Clear
2:55 PM 55.4 °F - 42.8 °F 63% 30.30 in 10.0 mi South 15.0 mph 24.2 mph N/A   Clear
3:15 PM 53.6 °F - 42.8 °F 67% 30.29 in 10.0 mi South 17.3 mph 28.8 mph N/A   Clear
3:35 PM 53.6 °F - 42.8 °F 67% 30.28 in 10.0 mi South 18.4 mph 26.5 mph N/A   Clear
3:55 PM 53.6 °F - 42.8 °F 67% 30.27 in 10.0 mi South 20.7 mph 26.5 mph N/A   Clear
4:15 PM 53.6 °F - 42.8 °F 67% 30.27 in 10.0 mi South 18.4 mph 31.1 mph N/A   Clear
4:35 PM 53.6 °F - 42.8 °F 67% 30.26 in 10.0 mi South 20.7 mph 31.1 mph N/A   Clear
4:55 PM 51.8 °F - 42.8 °F 71% 30.25 in 10.0 mi South 18.4 mph 27.6 mph N/A   Partly Cloudy
5:15 PM 51.8 °F - 42.8 °F 71% 30.23 in 10.0 mi South 18.4 mph 26.5 mph N/A   Partly Cloudy
5:35 PM 51.8 °F - 42.8 °F 71% 30.22 in 10.0 mi South 18.4 mph 27.6 mph N/A   Clear
5:55 PM 50.0 °F - 42.8 °F 76% 30.21 in 10.0 mi South 19.6 mph 26.5 mph N/A   Scattered Clouds
6:15 PM 50.0 °F - 42.8 °F 76% 30.19 in 10.0 mi South 19.6 mph 28.8 mph N/A   Scattered Clouds
6:35 PM 48.2 °F - 42.8 °F 82% 30.19 in 10.0 mi SSW 20.7 mph 29.9 mph N/A   Clear
6:55 PM 48.2 °F - 42.8 °F 82% 30.19 in 10.0 mi SSW 17.3 mph 26.5 mph N/A   Clear
7:15 PM 48.2 °F - 42.8 °F 82% 30.17 in 10.0 mi SSW 18.4 mph 24.2 mph N/A   Partly Cloudy
7:35 PM 48.2 °F - 42.8 °F 82% 30.18 in 10.0 mi SSW 16.1 mph 24.2 mph N/A   Clear
7:55 PM 48.2 °F - 42.8 °F 82% 30.17 in 10.0 mi SSW 18.4 mph 24.2 mph N/A   Clear
8:15 PM 48.2 °F - 42.8 °F 82% 30.17 in 10.0 mi SSW 18.4 mph 24.2 mph N/A   Clear
8:35 PM 48.2 °F - 42.8 °F 82% 30.17 in 10.0 mi SSW 17.3 mph 21.9 mph N/A   Clear
8:55 PM 50.0 °F - 42.8 °F 76% 30.18 in 10.0 mi SSW 13.8 mph 20.7 mph N/A   Mostly Cloudy
9:15 PM 50.0 °F - 42.8 °F 76% 30.17 in 10.0 mi South 15.0 mph 21.9 mph N/A   Overcast
9:35 PM 50.0 °F - 44.6 °F 82% 30.16 in 10.0 mi SSW 12.7 mph 18.4 mph N/A   Overcast
9:55 PM 48.2 °F - 42.8 °F 82% 30.16 in 10.0 mi SSW 12.7 mph - N/A   Overcast
10:15 PM 48.2 °F - 44.6 °F 87% 30.15 in 10.0 mi SSW 13.8 mph 20.7 mph N/A   Overcast
10:35 PM 48.2 °F - 44.6 °F 87% 30.13 in 10.0 mi SSW 15.0 mph 18.4 mph N/A   Overcast
10:55 PM 48.2 °F - 44.6 °F 87% 30.13 in 10.0 mi SSW 13.8 mph 19.6 mph N/A   Overcast
11:15 PM 48.2 °F - 44.6 °F 87% 30.13 in 10.0 mi SW 19.6 mph - N/A   Overcast
11:35 PM 48.2 °F - 44.6 °F 87% 30.13 in 10.0 mi SW 18.4 mph 23.0 mph N/A   Overcast
11:55 PM 48.2 °F - 44.6 °F 87% 30.13 in 10.0 mi SW 20.7 mph 25.3 mph N/A   Overcast